Regional Weather Roundup
Issued by NWS Pendleton, OR

Home | Current Version | Previous Version | Text Only | Print | Product List | Glossary On
Versions: 1 2 3 4 5 6 7 8 9 10 11 12 13 14 15 16 17 18 19 20 21 22 23 24 25 26 27 28 29 30 31 32 33 34 35 36 37 38 39 40 41 42 43 44 45 46 47 48 49 50
796
ASUS46 KPDT 041825
RWRPDT
PENDLETON REGIONAL WEATHER ROUNDUP
NATIONAL WEATHER SERVICE PENDLETON OREGON
1000 AM PST SUN DEC 4 2016

NOTE: FAIR INDICATES FEW OR NO CLOUDS BELOW 12,000 FEET WITH NO
SIGNIFICANT WEATHER AND/OR OBSTRUCTIONS TO VISIBILITY.

# INDICATES UNOFFICIAL STATION AND DATA

WAZ520-041910-
EAST SLOPES OF WASHINGTON CASCADES

CITY            SKY/WX      TMP DP  RH  WIND    PRES   REMARKS
#CLE ELUM HS    N/A         32  28  85  W7      29.85S
#CLE ELUM LAKE  N/A         30  29  96  CALM    29.91R
#GLENWOOD       N/A         37  35  92  S7      29.96R
#MANASTASH CYN  N/A         33  26  75  S1      29.82R
#NELSON 3SW     N/A         29  28  96  CALM    30.14R
#NILE           N/A         32  29  89  NW3     29.18R
#RONALD 2NW     N/A         28  N/A N/A W1      29.85R
#TROUT LAKE 1NE N/A         37  32  82  W5      30.00R
#TROUT LAKE 1E  N/A         35  34  96  CALM    29.93R
$$

WAZ521-041910-
SIMCOE HIGHLANDS

CITY            SKY/WX      TMP DP  RH  WIND    PRES   REMARKS
#CENTERVILLE 1SWN/A         36  33  89  W21     29.96R WCI 25
#GOLDENDALE 1NE N/A         37  32  82  SW1     N/A
#GOLDENDALE 4W  N/A         38  22  52  W15     29.96S WCI 29
#GOODNOE HILLS  N/A         40  36  85  W17     29.85R WCI 31
#LYLE 6NE       N/A         37  36  96  SW13    29.96S WCI 29
$$

WAZ026-041910-
KITTITAS VALLEY

CITY            SKY/WX      TMP DP  RH  WIND    PRES   REMARKS
ELLENSBURG AP   PTCLDY      39  29  67  W14     29.86R WCI 31
6HR MIN TEMP:   35; 6HR MAX TEMP:   39; 6HR PCP:  0.02;

#ELLENSBURG CWU N/A         37  28  70  W12     29.85R WCI 29
#ELLENSBURG 3NE N/A         36  32  85  N7      29.88R
#ELLENSBURG 1E  N/A         38  N/A N/A W1      N/A
#KITTITAS 4N    N/A         36  30  79  W10     29.91R
#KITTITAS 3S    N/A         38  32  79  NW10    29.90R
#THORP 6N       N/A         31  29  92  W14     29.90R WCI 21
$$

WAZ027-041910-
YAKIMA VALLEY

CITY            SKY/WX      TMP DP  RH  WIND    PRES   REMARKS
SUNNYSIDE AP    MOCLDY      44  32  62  W9      29.89S
YAKIMA AIRPORT  PTCLDY      46  26  45  W14     29.88S WCI 40
6HR MIN TEMP:   32; 6HR MAX TEMP:   46;

YAKIMA-VAGABOND SUNNY       39  33  79  S3      29.86S
6HR MIN TEMP:   35; 6HR MAX TEMP:   40;

#DONALD 2NE     N/A         48   8  19  SW5     28.74R
#GRANDVIEW      N/A         45  29  53  CALM    29.91S
#MABTON         N/A         47  33  58  W10     29.88S
#NACHES 2SW     N/A         38  32  79  NW3     29.86S
#TERRACE HTS    N/A         41  33  73  CALM    29.87S
#TOPPENISH      N/A         45  34  65  CALM    29.83R
#WEST VALLEY    N/A         43  25  49  W6      29.90R
#W YAKIMA       N/A         43  27  53  W2      29.91S
#WHITE SWAN 5E  N/A         47  27  45  W14     29.91R WCI 41
#WILEY CITY 3W  N/A         42  21  43  NW1     29.86R
$$

WAZ028-041910-
LOWER COLUMBIA BASIN...WASHINGTON

CITY            SKY/WX      TMP DP  RH  WIND    PRES   REMARKS
HANFORD         MOCLDY      45  33  63  NW16G24 29.87R WCI 38
6HR MIN TEMP:   40; 6HR MAX TEMP:   47;

PASCO           CLOUDY      46  37  71  W17     29.90S WCI 39
6HR MIN TEMP:   46; 6HR MAX TEMP:   48;

PROSSER AWOS    N/A         46  32  58  W9      29.93R
RICHLAND AWOS   MOCLDY      47  37  68  S3      29.90R
#BENTON CITY    N/A         44  36  73  W1      29.82S
#CONNELL 5N     N/A         42  36  79  NW3     29.88S
#CONNELL 5NW    N/A         42  37  82  W5      29.85R
#ELTOPIA 6NW    N/A         44  36  73  W1      28.85R
#KAHLOTUS       N/A         41  36  82  NW23G30 29.86S WCI 31
#KENNEWICK 3S   N/A         44  39  82  N6      29.90S
#PATERSON       N/A         45  38  76  NW18G26 29.91R WCI 37
#SAGEMOOR 2W    N/A         43  37  79  SW6     29.75R
#TOUCHET 2S     N/A         44  38  79  SW16    29.87F WCI 37
#WEST PASCO     N/A         46  36  68  SW7     29.88S
$$

WAZ029-041910-
FOOTHILLS OF THE BLUES...WASHINGTON

CITY            SKY/WX      TMP DP  RH  WIND    PRES   REMARKS
WALLA WALLA AP  RAIN        42  37  82  SW17    29.90R WCI 34
6HR MIN TEMP:   42; 6HR MAX TEMP:   46; 6HR PCP:  0.02;

#CLYDE 6NW      N/A         42  36  79  W15G25  29.88S WCI 34
#DAYTON SCHOOL  N/A         40  34  79  S2      29.89S
#LOWDEN 2SE     N/A         45  38  76  W14     29.87S WCI 39
#PLEASANT VIEW 1N/A         41  36  82  SW13    29.91S WCI 34
#PRESCOTT       N/A         43  39  86  W2      29.88R
#WHITMAN COLLEGEN/A         43  38  82  SW8     29.95S
#WAITSBURG 5S   N/A         39  37  92  SW12    29.99S WCI 32
#WAITSBURG 8N   N/A         39  N/A N/A S15     29.88S WCI 31
#WALLA WALLA U  N/A         45  40  82  CALM    29.92R
#WHITMAN MISSIONN/A         45  39  79  SW9     29.92R
$$

WAZ030-041910-
BLUE MOUNTAINS...WASHINGTON

CITY            SKY/WX      TMP DP  RH  WIND    PRES   REMARKS
#DIXIE 5SE      N/A         33  32  96  W16G36  29.76F WCI 23
#SKI BLUEWOOD   N/A         29  28  96  NE9     29.75F
$$

ORZ009-041-WAZ024-041910-
COLUMBIA RIVER GORGE

CITY            SKY/WX      TMP DP  RH  WIND    PRES   REMARKS
HOOD RIVER AP   LGT DRIZZLE 41  37  86  S7      30.03R
THE DALLES AP   CLOUDY      45  40  82  CALM    30.01R
6HR MIN TEMP:   44; 6HR MAX TEMP:   47; 6HR PCP:  0.11;

#ARLINGTON AIRPON/A         42  38  86  W15     29.97R WCI 34
#ARLINGTON HS   N/A         44  36  73  W3      29.88R
#CELILO DOT     N/A         44  37  76  SW3     N/A
#LYLE           N/A         43  38  82  W22     30.03R WCI 34
#MOSIER 1S      N/A         40  31  70  SW12    N/A    WCI 33
#MURDOCK        N/A         44  38  79  NW10    29.99R
#RUFUS DOT      N/A         45  39  79  W20     N/A    WCI 37
#SMITHVILLE     N/A         44  40  86  N7      29.97R

$$

ORZ510-041910-
NORTH CENTRAL OREGON

CITY            SKY/WX      TMP DP  RH  WIND    PRES   REMARKS
#ANTELOPE       N/A         35  33  92  SW7     29.89R
#CHENOWITH 1W   N/A         36  35  96  W20     N/A    WCI 25
#COW CYN RST AREN/A         33  N/A N/A SW8     N/A
#DUFUR 9E       N/A         34  33  96  W16G26  30.05R WCI 24
#GRASS VALLEY 1SN/A         36  33  89  W12     29.91R WCI 28
#KENT DOT       N/A         33  29  85  N12     N/A    WCI 24
#MAUPIN SCHOOL  N/A         42  39  89  CALM    30.04R
#MORO SCHOOL    N/A         38  36  92  W12     29.96R WCI 30
#SHANIKO 5WSW   N/A         32  29  89  N7      N/A
#SHANIKO 4NW    N/A         31  30  96  W7      29.91S
#WAPANITIA AIRPON/A         38  34  85  W9      30.01S
#WASCO DOT      N/A         40  36  85  W12     N/A    WCI 33
#WASCO 5NE      N/A         38  35  89  SW10    29.97S
$$

ORZ511-041910-
CENTRAL OREGON

CITY            SKY/WX      TMP DP  RH  WIND    PRES   REMARKS
BEND AIRPORT    LGT RAIN    39  37  92  N6      29.96R
MADRAS AIRPORT  LGT RAIN    37  37  100 N3      30.00R
PRINEVILLE AP   LGT RAIN    37  36  96  W10     29.97R
REDMOND AIRPORT RAIN        38  33  82  NW12G24 29.96R WCI 30
6HR MIN TEMP:   35; 6HR MAX TEMP:   40; 6HR PCP:  0.10;

#ASHWOOD SCHOOL N/A         36  33  89  CALM    29.94R
#BEND 1SW       N/A         37  35  92  SW1     N/A
#BEND-AWBREY    N/A         38  36  92  NE5     30.00R
#BEND-KIM LN    N/A         37  35  92  NW7     29.90R
#CULVER         N/A         37  33  85  CALM    29.94R
#CULVER 8W      N/A         38  35  89  CALM    29.97R
#LAKE BILLY CHINN/A         38  N/A N/A SE3     30.08R
#MADRAS 4S      N/A         38  22  52  CALM    30.06R
#POWELL BUTTE   N/A         37  36  96  NW7     29.93R
#PRINEVILLE 3N  N/A         38  35  89  W12     30.03R WCI 30

$$


ORZ509-041910-
EAST SLOPES OF OREGON CASCADES

CITY            SKY/WX      TMP DP  RH  WIND    PRES   REMARKS
SISTERS AWOS    N/A         36  34  92  W7      29.94R
#BLUE BOX PASS  N/A         28  N/A N/A NW5     N/A
#CAMP SHERMAN   N/A         34  31  89  CALM    30.09R
#LA PINE DOT    N/A         38  36  92  S3      N/A
#LA PINE 4NW    N/A         37  34  89  CALM    30.07R
#LAVA BUTTE DOT N/A         36  34  92  S1      N/A
#SISTERS AIRPOR N/A         35  35  100 N1      30.17S
#SISTERS ODOT   N/A         36  N/A N/A S2      N/A
#SISTERS 3N     N/A         34  29  82  CALM    29.97R
#SUNRIVER       N/A         36  35  96  W1      30.03R
#SUTTLE LK DOT  N/A         27  27  100 W16G38  N/A    WCI 15
#TUMALO 3W      N/A         36  34  92  NW8     29.89R
#WANOGA BUTTE D N/A         30  30  100 W10     N/A

$$

ORZ044-041910-
LOWER COLUMBIA BASIN...OREGON

CITY            SKY/WX      TMP DP  RH  WIND    PRES   REMARKS
HERMISTON       CLOUDY      45  36  70  SW17G31 29.91F WCI 38
6HR MIN TEMP:   44; 6HR MAX TEMP:   47;

#BOARDMAN SCHOOLN/A         45  38  76  SW13    29.94R WCI 39
#I-84 EX 198 DOTN/A         42  37  82  N21     N/A    WCI 33
#UMATILLA       N/A         45  35  68  SW15    29.85S WCI 38
$$

ORZ507-041910-
NORTHERN FOOTHILLS OF THE BLUES

CITY            SKY/WX      TMP DP  RH  WIND    PRES   REMARKS
PENDLETON AIRPT LGT RAIN    40  36  85  W28G35  29.89F WCI 29
6HR MIN TEMP:   40; 6HR MAX TEMP:   46; 6HR PCP:  0.01;

#ADAMS 3WNW     N/A         40  37  89  SW12    29.93S WCI 33
#ATHENA         N/A         39  36  89  W8      29.96R
#CAYUSE         N/A         41  37  86  W12     29.93R WCI 34
#HELIX SCHOOL   N/A         39  36  89  N12     29.92F WCI 32
#HELIX 3N       N/A         38  36  92  SW15    29.86S WCI 29
#HOLDMAN 5SE    N/A         40  37  89  SW12    29.90S WCI 33
#HOLDMAN 6E     N/A         38  37  96  SW12    29.72S WCI 30
#M-F GROVE ELEM N/A         43  35  73  SW9     29.89S
#M-FREEWATER 5SEN/A         41  36  82  SW15    29.91R WCI 33
#PENDLETON DNTN N/A         43  33  67  W3      29.92S
#PDT AQUATIC CTRN/A         42  35  76  W13     29.93S WCI 35
#PDT SUNRIDGE   N/A         42  37  82  SW9     29.92F
#PENDLETON 7NW  N/A         41  35  79  SW15    31.33S WCI 33
#PILOT ROCK 1S  N/A         42  33  70  W1      29.93R
#PILOT ROCK     N/A         41  36  82  W10     29.93S
#TUTUILLA       N/A         42  37  82  CALM    29.94R
#UMAPINE 2E     N/A         45  38  76  SW10    29.88S
#WESTON SCHOOL  N/A         39  34  82  W9      29.82R

$$

ORZ508-041910-
SOUTHERN FOOTHILLS OF THE BLUES

CITY            SKY/WX      TMP DP  RH  WIND    PRES   REMARKS
LEXINGTON       MOCLDY      41  37  86  W16     29.96F WCI 33
#AJAX           N/A         36  28  72  SE3     27.71S
#CONDON SCHOOL  N/A         34  32  92  W8      29.89R
#CONDON 5W      N/A         32  30  92  NW15    29.88S WCI 22
#HEPPNER EOC    N/A         37  34  89  W17G24  29.90R WCI 27
#HEPPNER 4NE    N/A         34  32  92  W10     29.95S
#LEXINGTON 2SE  N/A         41  36  82  W9      29.90R
#MIKKALO        N/A         39  33  79  W15     30.04F WCI 31
#OLEX 4N        N/A         41  37  86  SW15G24 29.93F WCI 33
#RUGGS 5NE      N/A         34  33  96  W16     30.07S WCI 24
#RUGGS 2SW      N/A         34  32  92  W12     29.99R WCI 25

$$

ORZ502-503-041910-
BLUE MOUNTAINS

CITY            SKY/WX      TMP DP  RH  WIND    PRES   REMARKS
MEACHAM         SNOW        34  31  89  VRB3    29.84F VSB 1/2
#BATTLE MTN DOT N/A         32  31  96  CALM    N/A
#GREENHORN 9SW  N/A         33  33  100 CALM    26.10F
#LADD CYN SMT   N/A         32  32  100 SE14    N/A    WCI 22
#LADD CREEK ODOTN/A         33  32  96  W6      N/A
#LONG CREEK HS  N/A         35  35  100 N9      29.90R
#N POWDER DOT   N/A         33  33  100 CALM    N/A
#PIKES PEAK     N/A         32  31  96  SW31    27.99S WCI 17
#TROY SCHOOL    N/A         38  36  92  CALM    29.74F
#UKIAH          N/A         36  34  92  S2      29.87F
#WESTON 4E      N/A         33  32  96  SW9     29.90S
$$

ORZ505-041910-
JOHN DAY BASIN

CITY            SKY/WX      TMP DP  RH  WIND    PRES   REMARKS
JOHN DAY        CLOUDY      39  37  92  W8      29.89F
#ANTELOPE 9ESE  N/A         42  37  82  S2      N/A
#DAYVILLE SCHOOLN/A         38  35  89  N5      29.90F
#MITCHELL       N/A         39  38  96  CALM    30.11R
#MITCHELL 8NW   N/A         36  34  92  NE2     30.18R
#MONUMENT HS    N/A         36  34  92  CALM    29.93S
#MT. VERNON 5SE N/A         36  34  92  CALM    29.84F
#SPRAY SCHOOL   N/A         37  N/A N/A CALM    N/A
$$

ORZ506-041910-
OCHOCO AND JOHN DAY HIGHLANDS

CITY            SKY/WX      TMP DP  RH  WIND    PRES   REMARKS
#BUCK CREEK DOT N/A         46  38  73  SW14    N/A    WCI 40
#HORSE RIDGE DO N/A         37  35  92  NW13    N/A    WCI 29
#KEYES SMT DOT  N/A         34  31  89  SW31    N/A    WCI 20
#PAULINA SCHOOL N/A         39  36  89  SW2     N/A
#PINE MTN OBS   N/A         33  32  96  NW7     N/A
#PRAIRIE CITY   N/A         34  31  89  CALM    30.06F
#SENECA         N/A         36  N/A N/A CALM    N/A
#SENECA 9NW     N/A         33  32  96  CALM    30.00F
$$

ORZ049-041910-
GRANDE RONDE VALLEY

CITY            SKY/WX      TMP DP  RH  WIND    PRES   REMARKS
LA GRANDE       CLOUDY      37  28  70  S5      29.86F
#COVE           N/A         35  35  100 CALM    29.91F
#COVE SCHOOL    N/A         35  34  96  CALM    29.90F
#COVE 6NW       N/A         34  32  92  CALM    29.95F
#ELGIN 3N       N/A         34  31  89  W1      29.85S
#ELGIN 1E       N/A         37  32  82  CALM    N/A
#IMBLER SCHOOL  N/A         34  32  92  SE8     29.84F
#ISLAND CITY 4N N/A         42  41  96  CALM    30.12R
#LADD CYN DOT   N/A         36  34  92  S10     N/A
#UNION 1S       N/A         36  34  92  E5      29.96S
$$

ORZ050-041910-
WALLOWA COUNTY

CITY            SKY/WX      TMP DP  RH  WIND    PRES   REMARKS
JOSEPH AIRPORT  LGT SNOW    34  34  100 CALM    29.83R
#IMNAHA SCHOOL  N/A         40  36  85  N2      29.88S
#JOSEPH 3N      N/A         33  29  85  CALM    29.86S
#JOSEPH 3W      N/A         33  31  92  CALM    29.67S
#LOSTINE        N/A         34  32  92  CALM    29.69S
#LOSTINE 3SE    N/A         33  32  96  S1      29.84S
#MT HOWARD 8000 N/A         23  21  92  W1      29.71F
#PROMISE 1S     N/A         33  31  92  E5      29.99F
#WALLOWA SCHOOL N/A         38  34  85  CALM    29.82F



$$



USA.gov is the U.S. government's official web portal to all federal, state and local government web resources and services.